Epoch = 2007 June 29.0 TT T = 2007 July 8.20087 TT Peri. = 49.73116 e = 0.5206516 Node = 336.11998 2000.0 q = 2.0319152 AU Incl. = 2.18993 a = 4.2389107 AU n = 0.11293347 P = 8.73 years
m1 = 10.0 + 5 logΔ + 20.0 log r